EW9372 Weather Reports


time (UTC)temp
F
wind
direction
speed
knots
gust
knots
rain 1hr
in
rain 24hr
in
rain mn
in
humidity
%
barometer
mb
20260506032626 62 168 0.9 3.5 0.00 0.00 0.00 75 1014.8
20260506031625 62 184 0.9 3.5 0.00 0.00 0.00 74 1014.7
20260506031126 62 167 0.9 3.5 0.00 0.00 0.00 74 1014.7
20260506030620 62 184 0.9 2.6 0.00 0.00 0.00 74 1014.6
20260506030120 62 200 0.9 3.5 0.00 0.00 0.00 73 1014.7
20260506025622 62 186 0.9 3.5 0.00 0.00 0.00 73 1014.5
20260506025617 62 184 0.9 3.5 0.00 0.00 0.00 73 1014.6
20260506024620 63 190 0.9 3.5 0.00 0.00 0.00 72 1014.3
20260506024116 63 171 0.9 4.3 0.00 0.00 0.00 72 1014.3
20260506023604 63 228 0.9 4.3 0.00 0.00 0.00 72 1014.3
20260506023103 63 205 1.7 4.3 0.00 0.00 0.00 72 1014.3
20260506023059 63 176 0.9 3.5 0.00 0.00 0.00 72 1014.3
20260506022057 63 207 0.9 4.3 0.00 0.00 0.00 71 1014.1
20260506021601 64 187 1.7 3.5 0.00 0.00 0.00 70 1014.0
20260506021556 63 192 0.9 3.5 0.00 0.00 0.00 71 1014.0
20260506020557 64 195 0.9 4.3 0.00 0.00 0.00 70 1014.0
20260506020056 64 192 0.9 4.3 0.00 0.00 0.00 70 1014.0
20260506015557 64 201 0.9 4.3 0.00 0.00 0.00 69 1014.0
20260506015034 64 173 1.7 0.9 0.00 0.00 0.00 69 1013.9
20260506015028 64 216 0.9 2.6 0.00 0.00 0.00 69 1014.0
20260506013021 64 184 0.9 4.3 0.00 0.00 0.00 69 1013.9
20260506012530 64 196 0.9 3.5 0.00 0.00 0.00 68 1013.7
20260506012522 64 140 0.9 4.3 0.00 0.00 0.00 68 1013.8
20260506012022 64 144 0.9 3.5 0.00 0.00 0.00 69 1013.7
20260506011020 64 169 0.0 1.7 0.00 0.00 0.00 70 1014.0
20260506010520 64 144 0.0 1.7 0.00 0.00 0.00 69 1014.0
20260506010014 64 146 0.9 0.9 0.00 0.00 0.00 68 1014.0
20260506004711 65 155 0.9 1.7 0.00 0.00 0.00 68 1014.0
20260506004208 65 158 0.9 0.0 0.00 0.00 0.00 67 1013.8
20260506004203 65 141 0.9 2.6 0.00 0.00 0.00 68 1013.8
20260506003655 65 187 0.9 2.6 0.00 0.00 0.00 67 1013.7
20260506002151 65 153 0.9 3.5 0.00 0.00 0.00 66 1013.7
20260506001153 65 158 0.0 2.6 0.00 0.00 0.00 65 1013.7
20260506000648 65 131 0.0 0.9 0.00 0.00 0.00 65 1013.7
20260506000149 65 174 0.0 0.0 0.00 0.00 0.00 66 1013.7
20260505235632 65 178 0.0 1.7 0.00 0.00 0.00 66 1013.7
20260505235625 65 152 0.0 2.6 0.00 0.00 0.00 67 1013.6
20260505234623 65 124 0.0 2.6 0.00 0.00 0.00 67 1013.7
20260505234124 65 100 0.0 1.7 0.00 0.00 0.00 66 1013.6
20260505233620 65 161 0.0 1.7 0.00 0.00 0.00 66 1013.6
20260505233115 66 169 0.0 1.7 0.00 0.00 0.00 65 1013.6
20260505232609 66 173 0.0 3.5 0.00 0.00 0.00 64 1013.6
20260505232106 66 81 0.0 3.5 0.00 0.00 0.00 64 1013.6
20260505231600 66 84 0.0 1.7 0.00 0.00 0.00 65 1013.6
20260505231018 66 51 0.9 0.0 0.00 0.00 0.00 64 1013.7
20260505225804 66 221 0.0 0.0 0.00 0.00 0.00 64 1013.8
20260505225300 66 222 0.0 1.7 0.00 0.00 0.00 64 1013.8
20260505224758 66 224 0.0 1.7 0.00 0.00 0.00 64 1013.8
20260505224242 65 144 0.0 0.0 0.00 0.00 0.00 64 1013.8
20260505223742 65 144 0.0 0.0 0.00 0.00 0.00 66 1014.0
20260505223234 65 142 0.0 0.0 0.00 0.00 0.00 65 1013.9
20260505222730 65 186 0.0 0.0 0.00 0.00 0.00 66 1014.0
20260505222219 65 186 0.0 0.0 0.00 0.00 0.00 66 1014.1
20260505221704 65 186 0.0 0.0 0.00 0.00 0.00 65 1014.1
20260505221156 65 186 0.0 0.0 0.00 0.00 0.00 66 1014.1
20260505220644 65 180 0.0 1.7 0.00 0.00 0.00 66 1014.0
20260505220144 65 178 0.0 2.6 0.00 0.00 0.00 67 1014.1
20260505215839 65 153 0.0 4.3 0.00 0.00 0.00 67 1014.2
20260505215629 65 178 0.9 2.6 0.00 0.00 0.00 65 1014.1
20260505215612 65 242 1.7 4.3 0.00 0.00 0.00 67 1014.3
20260505215320 65 180 0.9 2.6 0.00 0.00 0.00 67 1014.1
20260505214318 65 145 0.9 4.3 0.00 0.00 0.00 66 1014.2
20260505213041 65 213 1.7 5.2 0.00 0.00 0.00 66 1014.4
20260505212542 65 217 1.7 5.2 0.00 0.00 0.00 67 1014.4
20260505212034 65 226 1.7 5.2 0.00 0.00 0.00 65 1014.4
20260505211534 66 243 1.7 3.5 0.00 0.00 0.00 65 1014.3
20260505210648 66 235 1.7 0.0 0.00 0.00 0.00 66 1014.4
20260505204524 64 227 1.7 6.1 0.00 0.00 0.00 69 1014.3
20260505204026 64 243 1.7 2.6 0.00 0.00 0.00 70 1014.3
20260505202821 65 249 3.5 8.7 0.00 0.00 0.00 66 1014.5
20260505202320 66 235 2.6 7.8 0.00 0.00 0.00 65 1014.5
20260505201823 67 355 2.6 4.3 0.00 0.00 0.00 63 1014.5
20260505201818 67 224 1.7 2.6 0.00 0.00 0.00 61 1014.5
20260505195707 67 231 1.7 4.3 0.00 0.00 0.00 66 1014.6
20260505195209 67 193 0.9 4.3 0.00 0.00 0.00 66 1014.6
20260505194716 65 234 0.9 3.5 0.00 0.00 0.00 69 1014.6
20260505194202 64 233 1.7 3.5 0.00 0.00 0.00 72 1014.5
20260505193655 64 236 1.7 3.5 0.00 0.00 0.00 69 1014.5
20260505193151 62 229 0.9 3.5 0.00 0.00 0.00 71 1014.5
20260505192651 62 242 0.9 3.5 0.00 0.00 0.00 76 1014.5
20260505192149 61 238 1.7 4.3 0.00 0.00 0.00 74 1014.5
20260505191649 61 250 1.7 4.3 0.00 0.00 0.00 76 1014.5
20260505191150 61 230 0.9 4.3 0.00 0.00 0.00 76 1014.4
20260505190649 60 234 0.0 4.3 0.00 0.00 0.00 76 1014.5
20260505190146 61 235 0.0 2.6 0.00 0.00 0.00 72 1014.4
20260505185642 61 235 0.0 0.9 0.00 0.00 0.00 76 1014.4
20260505184510 60 241 0.9 3.5 0.00 0.00 0.00 78 1014.4
20260505184009 60 231 0.9 4.3 0.00 0.00 0.00 78 1014.4
20260505184001 60 232 1.7 4.3 0.00 0.00 0.00 76 1014.4
20260505182955 60 210 1.7 3.5 0.00 0.00 0.00 77 1014.4
20260505181832 59 231 0.0 4.3 0.00 0.00 0.00 79 1014.3
20260505181331 59 238 0.0 2.6 0.00 0.00 0.00 80 1014.2
20260505181323 59 248 0.0 3.5 0.00 0.00 0.00 80 1014.1
20260505181031 59 238 0.9 3.5 0.00 0.00 0.00 77 1014.2
20260505175820 59 248 0.9 3.5 0.00 0.00 0.00 81 1014.1
20260505175310 58 236 0.9 4.3 0.00 0.00 0.00 82 1014.1
20260505175306 59 249 0.9 4.3 0.00 0.00 0.00 82 1014.1
20260505174307 58 227 0.9 3.5 0.00 0.00 0.00 83 1014.0
20260505173800 58 230 1.7 4.3 0.00 0.00 0.00 85 1014.0
20260505173251 58 232 0.9 4.3 0.00 0.00 0.00 86 1014.0
20260505172750 57 215 0.9 3.5 0.00 0.00 0.00 90 1014.0
20260505172241 56 161 0.9 3.5 0.00 0.00 0.00 91 1013.9
20260505171730 56 218 0.9 3.5 0.00 0.00 0.00 91 1013.9
20260505171226 56 246 0.9 1.7 0.00 0.00 0.00 91 1013.9
20260505165826 55 224 0.9 3.5 0.00 0.00 0.00 92 1013.9
20260505165822 55 225 0.9 3.5 0.00 0.00 0.00 91 1013.9
20260505165550 55 227 0.9 0.9 0.00 0.00 0.00 91 1013.8
20260505164820 55 223 0.9 3.5 0.00 0.00 0.00 92 1013.9
20260505163120 54 201 0.9 2.6 0.00 0.00 0.00 92 1013.8
20260505162620 54 223 0.9 2.6 0.00 0.00 0.00 91 1013.8
20260505162612 54 207 1.7 3.5 0.00 0.00 0.00 92 1013.7
20260505162322 54 225 1.7 3.5 0.00 0.00 0.00 91 1013.7
20260505161109 53 191 1.7 3.5 0.00 0.00 0.00 92 1013.6
20260505160600 53 192 1.7 4.3 0.00 0.00 0.00 91 1013.6
20260505152445 52 186 0.9 3.5 0.00 0.00 0.00 92 1013.6
20260505151940 52 179 0.9 3.5 0.00 0.00 0.00 91 1013.5
20260505151438 52 185 0.9 3.5 0.00 0.00 0.00 91 1013.5
20260505150933 52 191 0.9 3.5 0.00 0.00 0.00 91 1013.4
20260505150430 52 181 0.9 3.5 0.00 0.00 0.00 91 1013.5
20260505140542 51 175 1.7 2.6 0.00 0.00 0.00 91 1013.0
20260505124835 51 200 1.7 4.3 0.00 0.00 0.00 91 1012.5
20260505124335 51 200 1.7 3.5 0.00 0.00 0.00 91 1012.5
20260505123835 51 200 1.7 4.3 0.00 0.00 0.00 91 1012.5
20260505123338 51 185 1.7 5.2 0.00 0.00 0.00 91 1012.5
20260505122836 51 202 1.7 5.2 0.00 0.00 0.00 91 1012.5
20260505122331 51 211 2.6 5.2 0.00 0.00 0.00 91 1012.3
20260505121831 51 201 1.7 4.3 0.00 0.00 0.00 91 1012.3
20260505121329 51 207 1.7 2.6 0.00 0.00 0.00 91 1012.2
20260505120140 51 186 2.6 5.2 0.00 0.00 0.00 91 1012.2
20260505115634 51 183 2.6 5.2 0.00 0.00 0.00 91 1012.3
20260505115138 51 204 1.7 5.2 0.00 0.00 0.00 91 1012.5
20260505115134 51 184 1.7 4.3 0.00 0.00 0.00 91 1012.3
20260505114125 51 227 1.7 5.2 0.00 0.00 0.00 91 1012.6
20260505113626 52 226 1.7 3.5 0.00 0.00 0.00 91 1012.6
20260505113125 52 228 1.7 5.2 0.00 0.00 0.00 91 1012.7
20260505112626 52 202 1.7 5.2 0.00 0.00 0.00 91 1012.7
20260505112124 52 209 1.7 3.5 0.00 0.00 0.00 91 1012.6
20260505111622 52 183 0.9 3.5 0.00 0.00 0.00 91 1012.7
20260505111124 52 187 0.9 3.5 0.00 0.00 0.00 91 1012.7
20260505110622 52 194 1.7 3.5 0.00 0.00 0.00 91 1012.5
20260505110127 52 184 1.7 5.2 0.00 0.00 0.00 91 1012.5
20260505110123 52 217 1.7 3.5 0.00 0.00 0.00 91 1012.5
20260505102122 52 213 1.7 0.9 0.00 0.00 0.00 91 1012.6
20260505101042 52 236 1.7 0.9 0.00 0.00 0.00 91 1012.6
20260505095437 52 213 1.7 3.5 0.00 0.00 0.00 91 1012.5
20260505094934 52 193 1.7 3.5 0.00 0.00 0.00 91 1012.5
20260505094428 52 185 1.7 3.5 0.00 0.00 0.00 91 1012.5
20260505093930 52 170 0.9 3.5 0.00 0.00 0.00 91 1012.6
20260505093431 52 125 0.0 0.9 0.00 0.00 0.00 91 1012.6
20260505092930 52 124 0.0 1.7 0.00 0.00 0.00 91 1012.9
20260505092429 52 121 0.9 1.7 0.00 0.00 0.00 91 1013.0
20260505091929 52 159 0.0 1.7 0.00 0.00 0.00 91 1012.8
20260505091423 52 153 0.0 0.9 0.00 0.00 0.00 91 1012.9
20260505090922 52 153 0.0 1.7 0.00 0.00 0.00 91 1012.9
20260505090419 52 153 0.0 1.7 0.00 0.00 0.00 91 1013.1
20260505085916 52 154 0.0 1.7 0.00 0.00 0.00 91 1013.1
20260505085414 52 152 0.0 1.7 0.00 0.00 0.00 91 1013.2
20260505084906 52 148 0.0 1.7 0.00 0.00 0.00 91 1013.1
20260505084359 52 142 0.0 0.0 0.00 0.00 0.00 91 1013.3
20260505082902 52 147 0.0 1.7 0.00 0.00 0.00 91 1013.3
20260505082858 52 148 0.0 1.7 0.00 0.00 0.00 91 1013.3
20260505081901 52 149 0.0 0.0 0.00 0.00 0.00 91 1013.5
20260505080740 52 142 0.0 1.7 0.00 0.00 0.00 91 1013.3
20260505080229 52 141 0.0 0.9 0.00 0.00 0.00 91 1013.2
20260505075729 52 141 0.0 0.9 0.00 0.00 0.00 91 1013.2
20260505075206 52 141 0.0 0.9 0.00 0.00 0.00 91 1013.2
20260505074702 52 140 0.0 1.7 0.00 0.00 0.00 91 1013.2
20260505074131 52 140 0.0 0.9 0.00 0.00 0.00 91 1013.3
20260505074127 52 140 0.0 1.7 0.00 0.00 0.00 91 1013.3
20260505073111 52 140 0.0 0.9 0.00 0.00 0.00 91 1013.3
20260505072612 52 141 0.0 0.9 0.00 0.00 0.00 91 1013.3
20260505072108 52 141 0.0 0.9 0.00 0.00 0.00 91 1013.4
20260505071600 52 141 0.0 0.0 0.00 0.00 0.00 91 1013.4
20260505070122 52 141 0.0 0.9 0.02 0.05 0.00 91 1013.5
20260505070117 52 141 0.0 0.0 0.03 0.05 0.90 91 1013.4
20260505065532 52 141 0.0 0.0 0.03 0.05 0.90 91 1013.3
20260505065016 52 141 0.0 0.0 0.03 0.04 0.89 91 1013.5
20260505064005 52 141 0.0 0.0 0.04 0.04 0.89 91 1013.6
20260505063508 51 141 0.0 0.0 0.04 0.04 0.89 91 1013.6
20260505062934 51 141 0.0 0.9 0.04 0.04 0.89 91 1013.5
20260505062421 52 141 0.0 0.9 0.04 0.04 0.89 91 1013.6
20260505061920 52 141 0.0 1.7 0.04 0.04 0.89 91 1013.7
20260505061433 52 143 0.0 2.6 0.03 0.03 0.88 91 1013.3
20260505061420 52 142 0.0 2.6 0.04 0.04 0.89 91 1013.5
20260505060421 52 134 0.0 0.9 0.03 0.03 0.88 91 1013.5
20260505055921 52 132 0.0 0.9 0.02 0.02 0.87 91 1013.4
20260505055423 52 132 0.0 0.9 0.02 0.02 0.87 91 1013.3
20260505055418 52 132 0.0 0.9 0.01 0.01 0.86 91 1013.1
20260505054404 52 132 0.0 0.0 0.00 0.00 0.83 91 1013.2
20260505053406 52 167 0.0 0.0 0.00 0.00 0.80 91 1013.3
20260505052858 52 102 0.0 1.7 0.01 0.01 0.82 91 1013.5
20260505050812 52 171 0.0 0.9 0.04 0.24 0.79 91 1013.3
20260505050308 52 141 0.0 1.7 0.06 0.23 0.78 91 1013.4
20260505041643 52 150 0.0 1.7 0.22 0.22 0.77 91 1013.6
20260505041144 52 155 0.0 1.7 0.20 0.20 0.76 91 1013.5
20260505041138 52 140 0.0 0.9 0.18 0.18 0.74 91 1013.6
20260505040134 52 140 0.0 1.7 0.16 0.16 0.71 91 1013.6
20260505035638 52 140 0.9 2.6 0.09 0.09 0.65 91 1013.7
20260505035633 52 141 0.0 2.6 0.12 0.12 0.67 91 1013.6
20260505034631 52 102 0.0 2.6 0.07 0.07 0.63 91 1013.8
20260505034132 52 145 0.0 2.6 0.06 0.06 0.61 91 1013.7
20260505033629 52 167 0.0 2.6 0.04 0.04 0.59 91 1013.8
20260505033129 52 96 0.0 0.9 0.02 0.02 0.57 91 1013.6